Lake Village, AR

7:45 PM CST on December 02, 2016 (GMT -0600)
Q102 Downtown Greenville | | Change Station

Elev 141 ft 33.41 °N, 91.06 °W | Updated 1 minute ago

Clear
Clear
54.9 °F
Feels Like 54.9 °F
N
0.0
Wind Variable Wind from NE
Gusts 0.0 mph

Today
High -- | Low -- °F
--% Chance of Precip.
Yesterday
High -- | Low -- °F
Precip. -- in
Pressure 30.26 in
Visibility 10.0 miles
Clouds Clear
Dew Point 40 °F
Humidity 57%
Rainfall 0.00 in
Snow Depth Not available.
6:52 AM 4:57 PM
Waxing Crescent, 11% visible
METAR KGLH 030053Z AUTO 06007KT 10SM CLR 12/02 A3023 RMK AO2 SLP247 T01220022
Pressure 30.26 in
Visibility 10.0 miles
Clouds Clear
Dew Point 40 °F
Humidity 57%
Rainfall 0.00 in
Snow Depth Not available.
6:52 AM 4:57 PM
Waxing Crescent, 11% visible
METAR KGLH 030053Z AUTO 06007KT 10SM CLR 12/02 A3023 RMK AO2 SLP247 T01220022

10-Day Weather Forecast

Almanac

Astronomy

Dec. 02, 2016 Rise Set
Actual Time
Civil Twilight
Nautical Twilight
Astronomical Twilight
Moon
Length of Visible Light
Length of Day
Tomorrow will be .
, % of the Moon is Illuminated

Today's Extremes

State Highs State Lows

Community

WunderPhotos

Upload Photos

1,955,392 photos uploaded!

WunderBlog® & News

Nearby

Air Quality

  Air Quality AQ Index Pollutant
Not available.

Snow Depth

Station Depth Elevation

Earthquake Activity

City Distance Mag. Time & Date
Minimum magnitude displayed is 2.5.

Coastal Water Temperatures

Place Temperature

Stations

Nearby Weather Stations

Station Location Temp. Windchill Dew Point Humidity Wind Precip. Elev Updated Type
                   

Watches & Warnings

There are currently no watches in effect.